| time (UTC) | temp F | wind direction | speed knots | gust knots | rain 1hr in | rain 24hr in | rain mn in | humidity % | barometer mb |
| 20260509024502 | 64 | 340 | 0.9 | 3.5 | 0.00 | 0.00 | 0.00 | 34 | 1002.9 |
| 20260509023428 | 64 | 341 | 0.0 | 3.5 | 0.00 | 0.00 | 0.00 | 34 | 1002.8 |
| 20260509022409 | 65 | 340 | 0.0 | 2.6 | 0.00 | 0.00 | 0.00 | 34 | 1002.7 |
| 20260509021414 | 65 | 339 | 0.0 | 1.7 | 0.00 | 0.00 | 0.00 | 34 | 1002.6 |
| 20260509020426 | 66 | 339 | 0.0 | 3.5 | 0.00 | 0.00 | 0.00 | 33 | 1002.6 |
| 20260509015445 | 66 | 338 | 0.0 | 3.5 | 0.00 | 0.00 | 0.00 | 32 | 1002.6 |
| 20260509014503 | 67 | 339 | 0.0 | 1.7 | 0.00 | 0.00 | 0.00 | 31 | 1002.6 |
| 20260509013519 | 67 | 339 | 0.9 | 7.8 | 0.00 | 0.00 | 0.00 | 30 | 1002.7 |
| 20260509012516 | 68 | 339 | 0.9 | 7.8 | 0.00 | 0.00 | 0.00 | 29 | 1002.7 |
| 20260509011509 | 68 | 339 | 0.9 | 6.1 | 0.00 | 0.00 | 0.00 | 29 | 1002.7 |
| 20260509010503 | 69 | 338 | 0.9 | 11.3 | 0.00 | 0.00 | 0.00 | 27 | 1002.7 |
| 20260509004315 | 69 | 338 | 0.9 | 6.1 | 0.00 | 0.00 | 0.00 | 26 | 1002.8 |
| 20260509003336 | 69 | 340 | 1.7 | 9.6 | 0.00 | 0.00 | 0.00 | 26 | 1002.8 |
| 20260509002308 | 70 | 338 | 1.7 | 9.6 | 0.00 | 0.00 | 0.00 | 25 | 1002.8 |
| 20260509001238 | 71 | 338 | 1.7 | 9.6 | 0.00 | 0.00 | 0.00 | 25 | 1002.9 |
| 20260509000226 | 71 | 340 | 3.5 | 12.2 | 0.00 | 0.00 | 0.00 | 24 | 1003.0 |
| 20260508235231 | 72 | 355 | 2.6 | 12.2 | 0.00 | 0.00 | 0.00 | 25 | 1003.0 |
| 20260508224632 | 73 | 32 | 2.6 | 9.6 | 0.00 | 0.00 | 0.00 | 27 | 1003.4 |
| 20260508223643 | 73 | 105 | 2.6 | 10.4 | 0.00 | 0.00 | 0.00 | 27 | 1003.5 |
| 20260508222634 | 73 | 21 | 2.6 | 13.9 | 0.00 | 0.00 | 0.00 | 26 | 1003.5 |
| 20260508221625 | 73 | 323 | 3.5 | 13.9 | 0.00 | 0.00 | 0.00 | 25 | 1003.6 |
| 20260508214441 | 74 | 51 | 3.5 | 12.2 | 0.00 | 0.00 | 0.00 | 25 | 1004.1 |
| 20260508212249 | 73 | 72 | 2.6 | 12.2 | 0.00 | 0.00 | 0.00 | 25 | 1004.3 |
| 20260508211238 | 73 | 53 | 2.6 | 9.6 | 0.00 | 0.00 | 0.00 | 27 | 1004.5 |
| 20260508205108 | 72 | 38 | 3.5 | 11.3 | 0.00 | 0.00 | 0.00 | 27 | 1004.7 |
| 20260508204124 | 71 | 30 | 1.7 | 9.6 | 0.00 | 0.00 | 0.00 | 29 | 1004.9 |
| 20260508203141 | 71 | 36 | 1.7 | 6.1 | 0.00 | 0.00 | 0.00 | 34 | 1004.9 |
| 20260508202109 | 70 | 338 | 1.7 | 8.7 | 0.00 | 0.00 | 0.00 | 35 | 1005.2 |
| 20260508201133 | 70 | 346 | 2.6 | 8.7 | 0.00 | 0.00 | 0.00 | 36 | 1005.1 |
| 20260508200155 | 70 | 18 | 2.6 | 9.6 | 0.00 | 0.00 | 0.00 | 33 | 1005.3 |
| 20260508192849 | 70 | 1 | 1.7 | 8.7 | 0.00 | 0.00 | 0.00 | 33 | 1005.9 |
| 20260508191901 | 69 | 16 | 1.7 | 8.7 | 0.00 | 0.00 | 0.00 | 35 | 1006.2 |
| 20260508190904 | 69 | 15 | 1.7 | 7.8 | 0.00 | 0.00 | 0.00 | 33 | 1006.4 |
| 20260508185831 | 69 | 338 | 1.7 | 7.8 | 0.00 | 0.00 | 0.00 | 35 | 1006.5 |
| 20260508184815 | 69 | 8 | 1.7 | 7.8 | 0.00 | 0.00 | 0.00 | 39 | 1006.7 |
| 20260508183803 | 68 | 6 | 2.6 | 7.8 | 0.00 | 0.00 | 0.00 | 39 | 1006.9 |
| 20260508182807 | 68 | 15 | 1.7 | 7.0 | 0.00 | 0.00 | 0.00 | 38 | 1007.1 |
| 20260508181750 | 67 | 207 | 1.7 | 7.0 | 0.00 | 0.00 | 0.00 | 39 | 1007.3 |
| 20260508180815 | 67 | 207 | 1.7 | 7.0 | 0.00 | 0.00 | 0.00 | 38 | 1007.4 |
| 20260508175832 | 67 | 203 | 0.9 | 7.0 | 0.00 | 0.00 | 0.00 | 39 | 1007.5 |
| 20260508173718 | 66 | 195 | 2.6 | 8.7 | 0.00 | 0.00 | 0.00 | 39 | 1007.6 |
| 20260508172649 | 65 | 355 | 0.9 | 5.2 | 0.00 | 0.00 | 0.00 | 40 | 1007.7 |
| 20260508171652 | 64 | 14 | 0.9 | 5.2 | 0.00 | 0.00 | 0.00 | 41 | 1007.8 |
| 20260508030007 | 56 | 346 | 0.0 | 0.0 | 0.00 | 0.00 | 0.00 | 53 | 1008.3 |